| time (UTC) | temp F | wind direction | speed knots | gust knots | rain 1hr in | rain 24hr in | rain mn in | humidity % | barometer mb |
| 20260906020804 | 85 | 244 | 0.0 | 1.7 | 0.00 | 0.00 | 0.00 | 49 | 1012.4 |
| 20260906020303 | 86 | 235 | 0.0 | 1.7 | 0.00 | 0.00 | 0.00 | 49 | 1012.4 |
| 20260906015803 | 85 | 285 | 0.0 | 1.7 | 0.00 | 0.00 | 0.00 | 49 | 1012.4 |
| 20260906015306 | 85 | 212 | 0.0 | 0.0 | 0.00 | 0.00 | 0.00 | 48 | 1012.4 |
| 20260906014304 | 86 | 258 | 0.0 | 0.0 | 0.00 | 0.00 | 0.00 | 48 | 1012.0 |
| 20260906013804 | 86 | 275 | 0.0 | 0.0 | 0.00 | 0.00 | 0.00 | 47 | 1012.0 |
| 20260906013303 | 86 | 302 | 0.0 | 0.0 | 0.00 | 0.00 | 0.00 | 46 | 1012.0 |
| 20260906012803 | 87 | 105 | 0.0 | 0.0 | 0.00 | 0.00 | 0.00 | 46 | 1012.1 |
| 20260906012306 | 87 | 258 | 0.0 | 0.0 | 0.00 | 0.00 | 0.00 | 46 | 1012.1 |
| 20260906011804 | 87 | 201 | 0.0 | 0.0 | 0.00 | 0.00 | 0.00 | 46 | 1012.1 |
| 20260906011303 | 87 | 280 | 0.9 | 2.6 | 0.00 | 0.00 | 0.00 | 46 | 1012.1 |
| 20260906010804 | 87 | 164 | 0.9 | 4.3 | 0.00 | 0.00 | 0.00 | 46 | 1012.1 |
| 20260906005803 | 88 | 292 | 0.0 | 0.0 | 0.00 | 0.00 | 0.00 | 45 | 1012.1 |
| 20260906004804 | 88 | 139 | 0.0 | 0.0 | 0.00 | 0.00 | 0.00 | 44 | 1012.0 |
| 20260906004304 | 89 | 325 | 0.0 | 1.7 | 0.00 | 0.00 | 0.00 | 44 | 1011.9 |
| 20260906003804 | 89 | 264 | 0.9 | 1.7 | 0.00 | 0.00 | 0.00 | 44 | 1011.9 |
| 20260906003303 | 89 | 168 | 0.0 | 0.0 | 0.00 | 0.00 | 0.00 | 43 | 1011.9 |
| 20260906002803 | 90 | 275 | 0.0 | 4.3 | 0.00 | 0.00 | 0.00 | 42 | 1011.8 |
| 20260906002306 | 90 | 145 | 0.0 | 1.7 | 0.00 | 0.00 | 0.00 | 42 | 1011.8 |
| 20260906001803 | 90 | 103 | 0.0 | 0.0 | 0.00 | 0.00 | 0.00 | 42 | 1011.8 |
| 20260906000803 | 91 | 108 | 0.0 | 0.0 | 0.00 | 0.00 | 0.00 | 42 | 1011.9 |
| 20260906000304 | 91 | 258 | 0.0 | 0.0 | 0.00 | 0.00 | 0.00 | 42 | 1011.9 |
| 20260905235803 | 92 | 241 | 0.9 | 1.7 | 0.00 | 0.00 | 0.00 | 41 | 1011.9 |
| 20260905235306 | 92 | 258 | 0.9 | 1.7 | 0.00 | 0.00 | 0.00 | 41 | 1011.9 |
| 20260905234803 | 92 | 266 | 0.9 | 5.2 | 0.00 | 0.00 | 0.00 | 41 | 1012.0 |
| 20260905234304 | 92 | 258 | 0.9 | 5.2 | 0.00 | 0.00 | 0.00 | 40 | 1012.0 |
| 20260905233804 | 92 | 316 | 0.9 | 2.6 | 0.00 | 0.00 | 0.00 | 39 | 1012.0 |
| 20260905233303 | 92 | 168 | 0.9 | 5.2 | 0.00 | 0.00 | 0.00 | 39 | 1012.0 |
| 20260905232804 | 93 | 193 | 1.7 | 4.3 | 0.00 | 0.00 | 0.00 | 39 | 1012.0 |
| 20260905232306 | 93 | 190 | 2.6 | 4.3 | 0.00 | 0.00 | 0.00 | 38 | 1012.0 |
| 20260905231804 | 93 | 276 | 2.6 | 7.8 | 0.00 | 0.00 | 0.00 | 36 | 1012.0 |
| 20260905231304 | 94 | 325 | 2.6 | 5.2 | 0.00 | 0.00 | 0.00 | 34 | 1012.0 |
| 20260905230803 | 94 | 288 | 1.7 | 6.1 | 0.00 | 0.00 | 0.00 | 34 | 1011.9 |
| 20260905230303 | 95 | 302 | 1.7 | 6.1 | 0.00 | 0.00 | 0.00 | 33 | 1011.9 |
| 20260905225305 | 97 | 302 | 4.3 | 8.7 | 0.00 | 0.00 | 0.00 | 31 | 1011.9 |
| 20260905224804 | 98 | 270 | 2.6 | 12.2 | 0.00 | 0.00 | 0.00 | 29 | 1011.8 |
| 20260905224303 | 102 | 302 | 1.7 | 8.7 | 0.00 | 0.00 | 0.00 | 28 | 1011.8 |
| 20260905223804 | 102 | 307 | 1.7 | 8.7 | 0.00 | 0.00 | 0.00 | 29 | 1011.8 |
| 20260905223304 | 99 | 348 | 4.3 | 7.0 | 0.00 | 0.00 | 0.00 | 31 | 1011.8 |
| 20260905222804 | 98 | 36 | 4.3 | 7.8 | 0.00 | 0.00 | 0.00 | 32 | 1011.9 |
| 20260905222306 | 98 | 280 | 2.6 | 5.2 | 0.00 | 0.00 | 0.00 | 32 | 1012.0 |
| 20260905221804 | 99 | 301 | 1.7 | 5.2 | 0.00 | 0.00 | 0.00 | 32 | 1012.0 |
| 20260905221304 | 98 | 302 | 1.7 | 1.7 | 0.00 | 0.00 | 0.00 | 33 | 1012.0 |
| 20260905220803 | 99 | 302 | 1.7 | 2.6 | 0.00 | 0.00 | 0.00 | 33 | 1011.9 |
| 20260905215804 | 99 | 72 | 3.5 | 12.2 | 0.00 | 0.00 | 0.00 | 32 | 1011.8 |
| 20260905215306 | 100 | 78 | 4.3 | 5.2 | 0.00 | 0.00 | 0.00 | 32 | 1011.8 |
| 20260905213804 | 101 | 302 | 4.3 | 7.8 | 0.00 | 0.00 | 0.00 | 32 | 1011.8 |
| 20260905213303 | 101 | 78 | 4.3 | 12.2 | 0.00 | 0.00 | 0.00 | 33 | 1011.8 |
| 20260905212804 | 100 | 267 | 5.2 | 8.7 | 0.00 | 0.00 | 0.00 | 34 | 1012.3 |
| 20260905212306 | 97 | 280 | 5.2 | 13.0 | 0.00 | 0.00 | 0.00 | 36 | 1012.7 |
| 20260905211304 | 95 | 212 | 5.2 | 10.4 | 0.00 | 0.00 | 0.00 | 34 | 1012.7 |
| 20260905210803 | 97 | 65 | 4.3 | 18.2 | 0.00 | 0.00 | 0.00 | 31 | 1012.3 |
| 20260905205804 | 102 | 179 | 0.9 | 5.2 | 0.00 | 0.00 | 0.00 | 26 | 1012.0 |
| 20260905205306 | 101 | 122 | 1.7 | 2.6 | 0.00 | 0.00 | 0.00 | 26 | 1012.0 |
| 20260905203804 | 102 | 316 | 4.3 | 7.0 | 0.00 | 0.00 | 0.00 | 24 | 1012.3 |
| 20260905203304 | 104 | 302 | 2.6 | 7.0 | 0.00 | 0.00 | 0.00 | 23 | 1012.3 |
| 20260905202803 | 105 | 329 | 1.7 | 4.3 | 0.00 | 0.00 | 0.00 | 23 | 1012.3 |
| 20260905202306 | 106 | 212 | 1.7 | 1.7 | 0.00 | 0.00 | 0.00 | 22 | 1012.3 |
| 20260905201804 | 105 | 325 | 2.6 | 7.8 | 0.00 | 0.00 | 0.00 | 24 | 1012.3 |
| 20260905201304 | 104 | 302 | 2.6 | 7.8 | 0.00 | 0.00 | 0.00 | 24 | 1012.3 |
| 20260905200803 | 103 | 294 | 2.6 | 6.1 | 0.00 | 0.00 | 0.00 | 24 | 1012.1 |
| 20260905200304 | 101 | 145 | 3.5 | 4.3 | 0.00 | 0.00 | 0.00 | 26 | 1012.0 |
| 20260905195804 | 104 | 18 | 2.6 | 7.8 | 0.00 | 0.00 | 0.00 | 24 | 1012.0 |
| 20260905195306 | 104 | 280 | 4.3 | 5.2 | 0.00 | 0.00 | 0.00 | 28 | 1012.0 |
| 20260905194304 | 103 | 258 | 1.7 | 5.2 | 0.00 | 0.00 | 0.00 | 29 | 1013.0 |
| 20260905193304 | 102 | 325 | 4.3 | 10.4 | 0.00 | 0.00 | 0.00 | 29 | 1013.0 |
| 20260905192306 | 100 | 348 | 5.2 | 7.8 | 0.00 | 0.00 | 0.00 | 31 | 1013.0 |
| 20260905191804 | 100 | 55 | 5.2 | 12.2 | 0.00 | 0.00 | 0.00 | 30 | 1013.0 |
| 20260905191304 | 101 | 32 | 4.3 | 15.6 | 0.00 | 0.00 | 0.00 | 29 | 1013.0 |
| 20260905190804 | 101 | 342 | 4.3 | 5.2 | 0.00 | 0.00 | 0.00 | 28 | 1013.2 |
| 20260905190304 | 102 | 100 | 3.5 | 7.0 | 0.00 | 0.00 | 0.00 | 29 | 1013.3 |
| 20260905185804 | 102 | 275 | 2.6 | 7.0 | 0.00 | 0.00 | 0.00 | 30 | 1013.3 |
| 20260905184304 | 102 | 302 | 3.5 | 10.4 | 0.00 | 0.00 | 0.00 | 33 | 1013.5 |
| 20260905183803 | 102 | 342 | 1.7 | 7.8 | 0.00 | 0.00 | 0.00 | 35 | 1013.5 |
| 20260905183304 | 101 | 280 | 4.3 | 6.1 | 0.00 | 0.00 | 0.00 | 36 | 1013.5 |
| 20260905182804 | 100 | 293 | 5.2 | 7.8 | 0.00 | 0.00 | 0.00 | 38 | 1013.8 |
| 20260905182305 | 97 | 168 | 5.2 | 7.8 | 0.00 | 0.00 | 0.00 | 38 | 1014.2 |
| 20260905181804 | 97 | 302 | 5.2 | 13.0 | 0.00 | 0.00 | 0.00 | 38 | 1014.2 |
| 20260905181304 | 96 | 100 | 4.3 | 7.8 | 0.00 | 0.00 | 0.00 | 41 | 1014.2 |
| 20260905180804 | 95 | 256 | 4.3 | 7.8 | 0.00 | 0.00 | 0.00 | 41 | 1013.8 |
| 20260905180304 | 94 | 280 | 3.5 | 8.7 | 0.00 | 0.00 | 0.00 | 44 | 1013.6 |
| 20260905175804 | 94 | 302 | 4.3 | 8.7 | 0.00 | 0.00 | 0.00 | 44 | 1013.6 |
| 20260905175306 | 93 | 145 | 2.6 | 8.7 | 0.00 | 0.00 | 0.00 | 44 | 1013.6 |
| 20260905174804 | 94 | 64 | 1.7 | 8.7 | 0.00 | 0.00 | 0.00 | 46 | 1013.8 |
| 20260905173804 | 93 | 302 | 4.3 | 7.0 | 0.00 | 0.00 | 0.00 | 46 | 1014.0 |
| 20260905173304 | 92 | 325 | 4.3 | 5.2 | 0.00 | 0.00 | 0.00 | 47 | 1014.0 |
| 20260905172305 | 92 | 55 | 1.7 | 4.3 | 0.00 | 0.00 | 0.00 | 48 | 1014.4 |
| 20260905171804 | 91 | 36 | 0.9 | 6.1 | 0.00 | 0.00 | 0.00 | 49 | 1014.4 |
| 20260905171304 | 91 | 78 | 1.7 | 6.1 | 0.00 | 0.00 | 0.00 | 49 | 1014.4 |
| 20260905170804 | 91 | 109 | 1.7 | 2.6 | 0.00 | 0.00 | 0.00 | 49 | 1014.6 |
| 20260905170304 | 90 | 32 | 1.7 | 5.2 | 0.00 | 0.00 | 0.00 | 49 | 1014.7 |
| 20260905165804 | 90 | 149 | 1.7 | 5.2 | 0.00 | 0.00 | 0.00 | 50 | 1014.7 |
| 20260905165306 | 89 | 302 | 1.7 | 7.0 | 0.00 | 0.00 | 0.00 | 50 | 1014.7 |
| 20260905164301 | 89 | 258 | 1.7 | 8.7 | 0.00 | 0.00 | 0.00 | 51 | 1015.0 |
| 20260905163800 | 89 | 302 | 1.7 | 5.2 | 0.00 | 0.00 | 0.00 | 52 | 1015.0 |
| 20260905163300 | 88 | 122 | 2.6 | 4.3 | 0.00 | 0.00 | 0.00 | 52 | 1015.0 |
| 20260905162800 | 88 | 302 | 4.3 | 7.8 | 0.00 | 0.00 | 0.00 | 52 | 1015.0 |
| 20260905160802 | 88 | 289 | 2.6 | 10.4 | 0.00 | 0.00 | 0.00 | 53 | 1014.9 |
| 20260905160301 | 87 | 348 | 1.7 | 1.7 | 0.00 | 0.00 | 0.00 | 54 | 1014.9 |
| 20260905155301 | 87 | 100 | 1.7 | 2.6 | 0.00 | 0.00 | 0.00 | 55 | 1014.9 |
| 20260905154801 | 87 | 286 | 3.5 | 7.0 | 0.00 | 0.00 | 0.00 | 56 | 1014.8 |
| 20260905154301 | 87 | 302 | 4.3 | 7.0 | 0.00 | 0.00 | 0.00 | 56 | 1014.8 |
| 20260905153800 | 86 | 18 | 2.6 | 7.0 | 0.00 | 0.00 | 0.00 | 57 | 1014.8 |
| 20260905153300 | 86 | 259 | 1.7 | 5.2 | 0.00 | 0.00 | 0.00 | 58 | 1013.8 |
| 20260905151301 | 85 | 122 | 1.7 | 5.2 | 0.00 | 0.00 | 0.00 | 60 | 1013.8 |
| 20260905150800 | 84 | 324 | 1.7 | 5.2 | 0.00 | 0.00 | 0.00 | 60 | 1013.8 |
| 20260905150301 | 84 | 258 | 1.7 | 5.2 | 0.00 | 0.00 | 0.00 | 60 | 1013.8 |
| 20260905145802 | 84 | 249 | 1.7 | 5.2 | 0.00 | 0.00 | 0.00 | 61 | 1013.8 |
| 20260905145301 | 83 | 302 | 1.7 | 6.1 | 0.00 | 0.00 | 0.00 | 62 | 1013.8 |
| 20260905144800 | 83 | 302 | 1.7 | 5.2 | 0.00 | 0.00 | 0.00 | 63 | 1013.8 |
| 20260905144301 | 82 | 78 | 0.9 | 7.0 | 0.00 | 0.00 | 0.00 | 64 | 1013.8 |
| 20260905143801 | 82 | 229 | 0.0 | 2.6 | 0.00 | 0.00 | 0.00 | 65 | 1013.8 |
| 20260905143301 | 81 | 147 | 0.9 | 2.6 | 0.00 | 0.00 | 0.00 | 66 | 1013.8 |
| 20260905142800 | 81 | 310 | 0.9 | 6.1 | 0.00 | 0.00 | 0.00 | 66 | 1013.8 |
| 20260905142305 | 80 | 145 | 0.9 | 2.6 | 0.00 | 0.00 | 0.00 | 66 | 1013.8 |
| 20260905141802 | 80 | 329 | 1.7 | 4.3 | 0.00 | 0.00 | 0.00 | 67 | 1013.8 |
| 20260905141301 | 80 | 100 | 1.7 | 4.3 | 0.00 | 0.00 | 0.00 | 67 | 1013.8 |
| 20260905140802 | 80 | 86 | 0.9 | 4.3 | 0.00 | 0.00 | 0.00 | 67 | 1013.8 |
| 20260905140301 | 80 | 122 | 0.0 | 0.0 | 0.00 | 0.00 | 0.00 | 67 | 1013.8 |
| 20260905135802 | 80 | 78 | 0.9 | 4.3 | 0.00 | 0.00 | 0.00 | 67 | 1013.8 |
| 20260905134801 | 80 | 114 | 1.7 | 5.2 | 0.00 | 0.00 | 0.00 | 68 | 1013.5 |
| 20260905134300 | 79 | 100 | 1.7 | 4.3 | 0.00 | 0.00 | 0.00 | 68 | 1013.5 |
| 20260905133800 | 79 | 62 | 0.9 | 4.3 | 0.00 | 0.00 | 0.00 | 69 | 1013.5 |
| 20260905133302 | 79 | 258 | 0.9 | 4.3 | 0.00 | 0.00 | 0.00 | 69 | 1013.5 |
| 20260905132801 | 79 | 100 | 0.9 | 4.3 | 0.00 | 0.00 | 0.00 | 70 | 1013.5 |
| 20260905131801 | 78 | 55 | 0.9 | 0.0 | 0.00 | 0.00 | 0.00 | 72 | 1013.5 |
| 20260905130801 | 78 | 150 | 0.9 | 0.0 | 0.00 | 0.00 | 0.00 | 74 | 1013.3 |
| 20260905130301 | 77 | 100 | 0.9 | 1.7 | 0.00 | 0.00 | 0.00 | 74 | 1013.3 |
| 20260905125801 | 77 | 100 | 0.9 | 2.6 | 0.00 | 0.00 | 0.00 | 74 | 1013.3 |
| 20260905125301 | 77 | 100 | 0.9 | 2.6 | 0.00 | 0.00 | 0.00 | 75 | 1013.3 |
| 20260905124800 | 77 | 118 | 0.0 | 1.7 | 0.00 | 0.00 | 0.00 | 75 | 1013.2 |
| 20260905124301 | 76 | 103 | 0.0 | 0.0 | 0.00 | 0.00 | 0.00 | 76 | 1013.2 |
| 20260905123801 | 76 | 119 | 0.0 | 1.7 | 0.00 | 0.00 | 0.00 | 77 | 1013.2 |
| 20260905123301 | 76 | 121 | 0.0 | 1.7 | 0.00 | 0.00 | 0.00 | 77 | 1013.2 |
| 20260905122800 | 76 | 84 | 0.0 | 0.0 | 0.00 | 0.00 | 0.00 | 78 | 1013.1 |
| 20260905122301 | 76 | 122 | 0.0 | 0.0 | 0.00 | 0.00 | 0.00 | 79 | 1013.0 |
| 20260905121800 | 75 | 128 | 0.0 | 0.0 | 0.00 | 0.00 | 0.00 | 81 | 1013.0 |
| 20260905120801 | 75 | 104 | 0.0 | 0.0 | 0.00 | 0.00 | 0.00 | 82 | 1012.8 |
| 20260905120301 | 75 | 100 | 0.0 | 0.0 | 0.00 | 0.00 | 0.00 | 81 | 1012.8 |
| 20260905115801 | 75 | 104 | 0.0 | 0.0 | 0.00 | 0.00 | 0.00 | 82 | 1012.8 |
| 20260905115300 | 74 | 106 | 0.0 | 0.0 | 0.00 | 0.00 | 0.00 | 81 | 1012.8 |
| 20260905114801 | 74 | 104 | 0.0 | 0.0 | 0.00 | 0.00 | 0.00 | 81 | 1012.8 |
| 20260905114300 | 75 | 145 | 0.0 | 0.0 | 0.00 | 0.00 | 0.00 | 81 | 1012.8 |
| 20260905113801 | 75 | 115 | 0.0 | 0.0 | 0.00 | 0.00 | 0.00 | 82 | 1012.8 |
| 20260905113300 | 74 | 100 | 0.0 | 0.0 | 0.00 | 0.00 | 0.00 | 81 | 1012.8 |
| 20260905112801 | 74 | 104 | 0.0 | 0.0 | 0.00 | 0.00 | 0.00 | 81 | 1012.7 |
| 20260905112305 | 74 | 100 | 0.0 | 0.0 | 0.00 | 0.00 | 0.00 | 81 | 1012.7 |
| 20260905111800 | 74 | 122 | 0.0 | 0.0 | 0.00 | 0.00 | 0.00 | 81 | 1012.7 |
| 20260905111300 | 74 | 100 | 0.0 | 0.0 | 0.00 | 0.00 | 0.00 | 81 | 1012.7 |
| 20260905110801 | 74 | 100 | 0.0 | 0.0 | 0.00 | 0.00 | 0.00 | 80 | 1012.8 |
| 20260905110301 | 75 | 100 | 0.0 | 0.0 | 0.00 | 0.00 | 0.00 | 80 | 1012.8 |
| 20260905105801 | 75 | 340 | 0.0 | 0.0 | 0.00 | 0.00 | 0.00 | 79 | 1012.8 |
| 20260905104802 | 75 | 127 | 0.0 | 0.0 | 0.00 | 0.00 | 0.00 | 78 | 1012.7 |
| 20260905104300 | 75 | 101 | 0.0 | 0.0 | 0.00 | 0.00 | 0.00 | 77 | 1012.7 |
| 20260905103801 | 75 | 118 | 0.0 | 0.0 | 0.00 | 0.00 | 0.00 | 77 | 1012.7 |
| 20260905103301 | 75 | 123 | 0.0 | 0.0 | 0.00 | 0.00 | 0.00 | 76 | 1012.7 |
| 20260905102801 | 76 | 69 | 0.0 | 0.0 | 0.00 | 0.00 | 0.00 | 76 | 1012.8 |
| 20260905102301 | 76 | 121 | 0.0 | 0.0 | 0.00 | 0.00 | 0.00 | 76 | 1012.8 |
| 20260905101801 | 76 | 95 | 0.0 | 0.0 | 0.00 | 0.00 | 0.00 | 76 | 1012.8 |
| 20260905101300 | 76 | 101 | 0.0 | 0.0 | 0.00 | 0.00 | 0.00 | 76 | 1012.8 |
| 20260905100801 | 76 | 105 | 0.0 | 0.0 | 0.00 | 0.00 | 0.00 | 76 | 1013.0 |
| 20260905100301 | 76 | 102 | 0.0 | 0.0 | 0.00 | 0.00 | 0.00 | 76 | 1013.0 |
| 20260905095801 | 76 | 100 | 0.0 | 0.0 | 0.00 | 0.00 | 0.00 | 76 | 1013.0 |
| 20260905095301 | 76 | 100 | 0.0 | 0.0 | 0.00 | 0.00 | 0.00 | 75 | 1013.0 |
| 20260905094801 | 76 | 100 | 0.0 | 0.0 | 0.00 | 0.00 | 0.00 | 73 | 1012.8 |
| 20260905093801 | 76 | 118 | 0.0 | 0.0 | 0.00 | 0.00 | 0.00 | 72 | 1012.8 |
| 20260905092800 | 77 | 118 | 0.0 | 0.0 | 0.00 | 0.00 | 0.00 | 72 | 1013.0 |
| 20260905092300 | 77 | 145 | 0.0 | 0.0 | 0.00 | 0.00 | 0.00 | 72 | 1013.0 |
| 20260905091801 | 77 | 145 | 0.0 | 0.0 | 0.00 | 0.00 | 0.00 | 71 | 1013.0 |
| 20260905090801 | 77 | 145 | 0.0 | 0.0 | 0.00 | 0.00 | 0.00 | 71 | 1012.7 |
| 20260905085800 | 77 | 118 | 0.0 | 0.0 | 0.00 | 0.00 | 0.00 | 72 | 1012.6 |
| 20260905085301 | 77 | 100 | 0.0 | 0.0 | 0.00 | 0.00 | 0.00 | 72 | 1012.6 |
| 20260905084801 | 77 | 127 | 0.0 | 0.0 | 0.00 | 0.00 | 0.00 | 72 | 1012.7 |
| 20260905084300 | 77 | 122 | 0.0 | 0.0 | 0.00 | 0.00 | 0.00 | 72 | 1012.7 |
| 20260905083801 | 77 | 100 | 0.0 | 0.0 | 0.00 | 0.00 | 0.00 | 72 | 1012.7 |
| 20260905083300 | 77 | 101 | 0.0 | 0.0 | 0.00 | 0.00 | 0.00 | 71 | 1012.7 |
| 20260905082800 | 77 | 100 | 0.0 | 1.7 | 0.00 | 0.00 | 0.00 | 71 | 1012.9 |
| 20260905082301 | 78 | 137 | 0.0 | 1.7 | 0.00 | 0.00 | 0.00 | 72 | 1012.9 |
| 20260905081800 | 78 | 118 | 0.0 | 0.0 | 0.00 | 0.00 | 0.00 | 71 | 1012.9 |
| 20260905081301 | 78 | 143 | 0.0 | 0.0 | 0.00 | 0.00 | 0.00 | 71 | 1012.9 |
| 20260905080801 | 78 | 122 | 0.0 | 0.0 | 0.00 | 0.00 | 0.00 | 70 | 1013.0 |
| 20260905080301 | 78 | 123 | 0.0 | 0.0 | 0.00 | 0.00 | 0.00 | 69 | 1013.0 |
| 20260905075801 | 78 | 133 | 0.0 | 0.0 | 0.00 | 0.00 | 0.00 | 69 | 1013.0 |
| 20260905075300 | 78 | 100 | 0.0 | 0.0 | 0.00 | 0.00 | 0.00 | 69 | 1013.0 |
| 20260905074300 | 78 | 80 | 0.0 | 0.0 | 0.00 | 0.00 | 0.00 | 69 | 1013.3 |
| 20260905073800 | 78 | 114 | 0.0 | 0.0 | 0.00 | 0.00 | 0.00 | 69 | 1013.3 |
| 20260905072305 | 78 | 34 | 0.0 | 0.0 | 0.00 | 0.00 | 0.00 | 69 | 1013.3 |
| 20260905071801 | 79 | 136 | 0.0 | 0.0 | 0.00 | 0.00 | 0.00 | 68 | 1013.3 |
| 20260905071301 | 79 | 144 | 0.0 | 0.0 | 0.00 | 0.00 | 0.00 | 68 | 1013.3 |
| 20260905070801 | 79 | 112 | 0.0 | 0.0 | 0.00 | 0.00 | 0.00 | 68 | 1013.2 |
| 20260905070301 | 79 | 122 | 0.0 | 0.0 | 0.00 | 0.00 | 0.00 | 68 | 1013.2 |
| 20260905065301 | 79 | 80 | 0.0 | 0.0 | 0.00 | 0.00 | 0.00 | 67 | 1013.2 |
| 20260905064800 | 79 | 190 | 0.0 | 0.0 | 0.00 | 0.00 | 0.00 | 66 | 1013.3 |
| 20260905064300 | 79 | 100 | 0.0 | 0.0 | 0.00 | 0.00 | 0.00 | 65 | 1013.4 |
| 20260905063800 | 79 | 104 | 0.0 | 0.0 | 0.00 | 0.00 | 0.00 | 64 | 1013.4 |
| 20260905063301 | 80 | 122 | 0.0 | 0.0 | 0.00 | 0.00 | 0.00 | 64 | 1013.4 |
| 20260905062300 | 80 | 102 | 0.0 | 0.0 | 0.00 | 0.00 | 0.00 | 63 | 1013.5 |
| 20260905061800 | 80 | 118 | 0.0 | 0.0 | 0.00 | 0.00 | 0.00 | 63 | 1013.5 |
| 20260905061301 | 80 | 257 | 0.0 | 0.0 | 0.00 | 0.00 | 0.00 | 62 | 1013.5 |
| 20260905060801 | 80 | 122 | 0.0 | 0.0 | 0.00 | 0.00 | 0.00 | 61 | 1013.3 |
| 20260905055801 | 80 | 105 | 0.0 | 0.0 | 0.00 | 0.00 | 0.00 | 61 | 1013.3 |
| 20260905055301 | 80 | 145 | 0.0 | 0.0 | 0.00 | 0.00 | 0.00 | 61 | 1013.3 |
| 20260905054800 | 81 | 140 | 0.0 | 0.0 | 0.00 | 0.00 | 0.00 | 60 | 1013.4 |
| 20260905054301 | 81 | 122 | 0.0 | 0.0 | 0.00 | 0.00 | 0.00 | 60 | 1013.4 |
| 20260905052801 | 81 | 109 | 0.0 | 0.0 | 0.00 | 0.00 | 0.00 | 60 | 1013.5 |
| 20260905052300 | 81 | 102 | 0.0 | 0.0 | 0.00 | 0.00 | 0.00 | 60 | 1013.5 |
| 20260905051801 | 81 | 136 | 0.0 | 0.0 | 0.00 | 0.00 | 0.00 | 60 | 1013.5 |
| 20260905051301 | 81 | 122 | 0.0 | 0.0 | 0.00 | 0.00 | 0.00 | 60 | 1013.5 |
| 20260905045300 | 82 | 121 | 0.0 | 0.0 | 0.00 | 0.00 | 0.00 | 59 | 1013.5 |
| 20260905044301 | 82 | 101 | 0.0 | 0.0 | 0.00 | 0.00 | 0.00 | 59 | 1013.2 |
| 20260905043800 | 82 | 104 | 0.0 | 0.0 | 0.00 | 0.00 | 0.00 | 58 | 1013.2 |
| 20260905043300 | 82 | 102 | 0.0 | 0.0 | 0.00 | 0.00 | 0.00 | 58 | 1013.2 |
| 20260905042800 | 82 | 178 | 0.0 | 0.0 | 0.00 | 0.00 | 0.00 | 58 | 1013.4 |
| 20260905042301 | 82 | 100 | 0.0 | 0.0 | 0.00 | 0.00 | 0.00 | 58 | 1013.5 |
| 20260905041800 | 82 | 122 | 0.0 | 0.0 | 0.00 | 0.00 | 0.00 | 58 | 1013.5 |
| 20260905040301 | 83 | 145 | 0.9 | 4.3 | 0.00 | 0.00 | 0.00 | 57 | 1013.1 |
| 20260905035801 | 83 | 100 | 0.9 | 4.3 | 0.00 | 0.00 | 0.00 | 57 | 1013.1 |
| 20260905035301 | 83 | 100 | 0.9 | 1.7 | 0.00 | 0.00 | 0.00 | 57 | 1013.1 |
| 20260905034801 | 83 | 104 | 0.0 | 1.7 | 0.00 | 0.00 | 0.00 | 57 | 1013.3 |
| 20260905034301 | 84 | 100 | 0.0 | 0.0 | 0.00 | 0.00 | 0.00 | 56 | 1013.3 |
| 20260905033801 | 83 | 112 | 0.0 | 0.0 | 0.00 | 0.00 | 0.00 | 56 | 1013.3 |
| 20260905032801 | 84 | 140 | 0.0 | 0.0 | 0.00 | 0.00 | 0.00 | 56 | 1013.5 |
| 20260905032301 | 84 | 209 | 0.0 | 0.0 | 0.00 | 0.00 | 0.00 | 55 | 1013.5 |
| 20260905031800 | 84 | 233 | 0.0 | 0.0 | 0.00 | 0.00 | 0.00 | 56 | 1013.5 |
| 20260905030301 | 83 | 122 | 0.0 | 0.0 | 0.00 | 0.00 | 0.00 | 56 | 1013.5 |
| 20260905024801 | 84 | 100 | 0.9 | 1.7 | 0.00 | 0.00 | 0.00 | 55 | 1013.3 |
| 20260905024300 | 84 | 120 | 0.0 | 1.7 | 0.00 | 0.00 | 0.00 | 55 | 1013.2 |
| 20260905023800 | 84 | 122 | 0.0 | 0.0 | 0.00 | 0.00 | 0.00 | 54 | 1013.2 |
| 20260905022801 | 85 | 122 | 0.0 | 0.0 | 0.00 | 0.00 | 0.00 | 52 | 1013.0 |
| 20260905022301 | 85 | 257 | 0.0 | 0.0 | 0.00 | 0.00 | 0.00 | 52 | 1013.0 |
| 20260905021301 | 85 | 122 | 0.0 | 0.0 | 0.00 | 0.00 | 0.00 | 50 | 1013.0 |